Find Starlink 11519

NORAD ID: 62560 Int'l Des: 2025-006 Owner: SPXS Country: US Constellation: starlink operational
LEOCIRCULAR

現在のビュー

3D地球を読み込み中...

About Starlink 11519

Starlink 11519 (NORAD 62560) is a starlink constellation satellite (v2 mini d2c) launched Jan 10, 2025 by SPXS of US. It operates in LEO, CIRCULAR orbit with a mass of 960.00 kg.

Starlink 11519について

説明を読み込み中...

次回通過

Passes for default location (London). Set your location on the main map for personalized predictions.

高度履歴

Loading altitude history...

軌道要素

1 62560U 25006G 26169.50526362 .00118837 00000-0 91532-3 0 9996
2 62560 42.9986 252.6121 0002054 295.2200 64.8454 15.70868174 82456
Epoch: Jun 18, 2026 • Age: 8 hours

現在のステータス

高度 355.0 km
速度 7.70 km/s
衛星直下点 4.83°N, 52.01°E
打ち上げ日 Jan 10, 2025
運用期間 1.4 years
タイプ internet

技術仕様

分類 Payload
質量 960.00 kg
乾燥質量 910.00 kg
総質量 960.00 kg
長さ 0.30 m
直径 4.10 m
スパン 29.00 m
形状 Box + pan
製造者 SPXS
バスタイプ Starlink V2MD
フェーズステータス In Orbit
所有者/国 SPXS/US

Most Searched